sat.trackr.live / text

‹ back to catalog

YINHE-1

NORAD 45024 · 2020-004A

PAYLOAD ACTIVE UNKNOWN

§ Identity

Operator
Country
PRC
Launch date
2020-01-16
Launch site
JSC
Launch vehicle
Mass (kg)
RCS (m²)

External: N2YO · Heavens-Above · Gunter

§ Orbital elements

Epoch: 2026-05-25T04:50:58.027200Z

Period
97.36 min
Inclination
86.3922°
Eccentricity
0.0015974
Mean motion
14.79101170 rev/d
Perigee alt
621.0 km
Apogee alt
643.4 km
Semi-major
7,010.3 km
B*
7.3123e-5
RAAN
125.8660°
Arg perigee
81.5182°
Mean anomaly
278.7849°
Rev number
34,252

§ Raw data

YINHE-11 45024U 20004A   26145.20206050  .00000569  00000+0  73123-4 0  99932 45024  86.3922 125.8660 0015974  81.5182 278.7849 14.79101170342528

JSON: /api/v1/satellites/45024 · /tle

For live sub-satellite position, see the globe view (requires WebGL).

§ Visibility from observer

Set your observer location to see the next 7 days of passes ≥ 10°. The values pass through the URL so the page stays shareable.

No JS? Fill the form by hand. The geolocation button needs JavaScript.